{"data":{"norad_id":26931,"intl_designator":"2001-043C","name":"PCSAT (NO-44)","alt_names":[],"object_type":"PAYLOAD","status":"ACTIVE","operator":null,"country":"US","launch_date":"2001-09-30","launch_site_code":"KODAK","launch_vehicle":null,"mission":null,"orbit_class":"UNKNOWN","rcs_meters":0.1788,"size_class":null,"mass_kg":null,"dimensions":null,"purposes":["comms"],"wikipedia_slug":null,"has_3d_model":false,"image_url":null,"decayed_at":null,"tle_current":{"epoch":"2026-05-25T04:19:21.523008Z","epoch_age_seconds":56547,"freshness":"FRESH","line1":"1 26931U 01043C   26145.18011022  .00000113  00000+0  73257-4 0  9994","line2":"2 26931  67.0508 303.7778 0006182 263.8454  96.1944 14.31945949287158","mean_motion":14.31945949,"eccentricity":0.0006182,"inclination_deg":67.0508,"raan_deg":303.7778,"arg_perigee_deg":263.8454,"mean_anomaly_deg":96.1944,"bstar":7.3257e-5,"rev_number":28715,"period_min":100.56245495898,"perigee_km":780.8052767541,"apogee_km":789.66206825358,"semimajor_km":7163.3706725038,"source":"CELESTRAK","updated_at":"2026-05-25T13:38:23.280012Z"}}}